Printer-friendly version

IAU Minor Planet Center

Minor Planet Center

MPEC 2008-U72 : 2008 UE7

The following Minor Planet Electronic Circular may be linked-to from your own Web pages, but must not otherwise be redistributed electronically.

A form allowing access to any MPEC is at the bottom of this page.


Read MPEC 2008-U71 Read MPEC 2008-U73


M.P.E.C. 2008-U72                                Issued 2008 Oct. 27, 15:47 UT

     The Minor Planet Electronic Circulars contain information on unusual
         minor planets and routine data on comets.  They are published
   on behalf of Commission 20 of the International Astronomical Union by the
          Minor Planet Center, Smithsonian Astrophysical Observatory,
                          Cambridge, MA 02138, U.S.A.

             Prepared using the Tamkin Foundation Computer Network

                              MPC@CFA.HARVARD.EDU
          URL http://www.cfa.harvard.edu/iau/mpc.html  ISSN 1523-6714

                                   2008 UE7

Observations:
     K08U07E* C2008 10 26.31096 04 26 25.36 +12 14 09.6          19.7   EU072704
     K08U07E  C2008 10 26.32260 04 26 26.18 +12 14 09.2          20.2   EU072704
     K08U07E  C2008 10 26.33417 04 26 27.11 +12 14 10.2          19.9   EU072704
     K08U07E  C2008 10 26.34570 04 26 28.00 +12 14 08.8          20.3   EU072704
     K08U07E  C2008 10 27.12548 04 27 32.04 +12 13 45.4                 EU072J95
     K08U07E  C2008 10 27.13479 04 27 32.74 +12 13 45.1                 EU072J95
     K08U07E  C2008 10 27.13837 04 27 32.99 +12 13 44.6          18.9 R EU072J95
     K08U07E 5C2008 10 27.45394 04 27 59.20 +12 13 44.7          19.5 R EU072673
     K08U07E 5C2008 10 27.45949 04 27 59.60 +12 13 44.7                 EU072673
     K08U07E 5C2008 10 27.46400 04 27 59.89 +12 13 44.6                 EU072673
     K08U07E 5C2008 10 27.46806 04 28 00.27 +12 13 44.6                 EU072673
     K08U07E  C2008 10 27.48889 04 28 01.57 +12 13 43.4          19.4 R EU072H01
     K08U07E  C2008 10 27.49009 04 28 01.65 +12 13 43.3          19.7 R EU072H01
     K08U07E  C2008 10 27.49134 04 28 01.76 +12 13 43.3          19.6 R EU072H01
     K08U07E  C2008 10 27.49245 04 28 01.83 +12 13 43.3          19.6 R EU072H01

Observer details:
673 Table Mountain Observatory, Wrightwood.  Observer J. Young.  0.61-m f/16
    Cassegrain + CCD.
704 Lincoln Laboratory ETS, New Mexico.  Observers M. Bezpalko, D. Torres,
    R. Kracke, G. Spitz, J. Kistler.  Measurers J. Stuart, S. Scruggs.  1.0-m
    f/2.15 reflector + CCD.
H01 Magdalena Ridge Observatory, Socorro.  Observer W. H. Ryan.  2.4-m f/8.9
    reflector + CCD.
J95 Great Shefford.  Observer P. Birtwhistle.  0.40-m f/6.0 Schmidt-Cassegrain
    + CCD.

Orbital elements:
2008 UE7                                            PHA, Earth MOID = 0.0114 AU
Epoch 2008 Nov. 30.0 TT = JDT 2454800.5                 MPC
M 337.09773              (2000.0)            P               Q
n   0.46693652     Peri.   44.83578     -0.60863893     -0.79069189
a   1.6454985      Node    82.76759     +0.70801945     -0.57880758
e   0.4334803      Incl.    3.81861     +0.35814397     -0.19946961
P   2.11           H   20.3           G   0.15           U   9
Residuals in seconds of arc
081026 704  0.1-  0.1-    081027 J95  0.1+  0.1+    081027 673  0.5+  0.2+
081026 704  0.8-  0.3-    081027 J95  0.3-  0.3-    081027 H01  0.1+  0.0
081026 704  0.2+  0.8+    081027 673  0.2+  0.1-    081027 H01  0.1-  0.1-
081026 704  0.7+  0.4-    081027 673  0.0   0.1+    081027 H01  0.1+  0.0
081027 J95  0.2+  0.2+    081027 673  0.7-  0.1+    081027 H01  0.1-  0.0

Ephemeris:
2008 UE7                 a,e,i = 1.65, 0.43, 4                   q = 0.9322
Date    TT    R. A. (2000) Decl.     Delta      r     Elong.  Phase     V
2008 10 21    04 19.12   +12 16.5    0.398    1.331   141.9    27.5    20.1
2008 10 31    04 32.96   +12 13.0    0.311    1.267   148.0    24.5    19.4
2008 11 10    04 48.33   +12 18.6    0.233    1.204   153.8    21.3    18.6
2008 11 20    05 09.24   +12 52.0    0.165    1.143   158.1    18.8    17.6
2008 11 30    05 47.27   +14 34.1    0.106    1.086   159.2    18.8    16.6
2008 12 10    07 29.54   +18 30.3    0.0587   1.034   146.8    31.4    15.6
2008 12 20    11 45.02   +14 06.5    0.0481   0.991    97.3    79.9    16.5
2008 12 30    14 10.03   +03 16.2    0.0835   0.958    70.2   105.1    18.7
2009 01 09    15 02.39   -01 25.9    0.130    0.938    66.1   106.6    19.7
2009 01 19    15 31.67   -04 08.4    0.179    0.932    68.1   101.7    20.1
2009 01 29    15 53.45   -06 05.8    0.225    0.941    72.1    94.7    20.3
2009 02 08    16 11.53   -07 38.2    0.266    0.963    77.2    87.1    20.4
2009 02 18    16 26.77   -08 51.5    0.301    0.998    83.1    79.5    20.5
2009 02 28    16 38.59   -09 47.5    0.327    1.043    89.9    71.8    20.5
2009 03 10    16 45.99   -10 29.5    0.346    1.095    97.8    63.9    20.5
2009 03 20    16 47.98   -11 00.6    0.359    1.153   107.1    55.6    20.4
2009 03 30    16 43.43   -11 23.6    0.368    1.215   117.9    46.6    20.3
2009 04 09    16 31.91   -11 41.5    0.377    1.278   130.3    36.7    20.2
2009 04 19    16 14.24   -11 55.4    0.393    1.343   144.1    26.0    20.1
2009 04 29    15 52.76   -12 06.4    0.420    1.407   158.6    15.1    20.0
2009 05 09    15 31.22   -12 17.7    0.464    1.470   171.7     5.7    19.9
2009 05 19    15 13.02   -12 33.3    0.526    1.533   169.8     6.7    20.3
2009 05 29    15 00.01   -12 57.0    0.607    1.593   158.3    13.6    21.0
2009 06 08    14 52.65   -13 30.6    0.704    1.652   147.4    19.3    21.6

Timothy B. Spahr             (C) Copyright 2008 MPC           M.P.E.C. 2008-U72

Read MPEC 2008-U71 Read MPEC 2008-U73


MPEC number:

Enter an
MPEC number in one of the following forms:
  • 1997-B01 (the full form)
  • J97B01 (the packed version of the full form)
  • B01 (the abbreviated form)

Valid HTML 4.01!